DW7691 Weather Reports


Display with metric or nautical units.
time (UTC)temp
F
wind
direction
speed
MPH
gust
MPH
rain 1hr
in
rain 24hr
in
rain mn
in
humidity
%
barometer
mb
20260906214511 89 245 0.0 6.0 0.00 0.00 0.00 33 1006.2
20260906213010 89 255 0.0 4.0 0.00 0.00 0.00 32 1006.3
20260906211511 88 334 0.0 3.0 0.00 0.00 0.00 33 1006.5
20260906210005 87 113 0.0 1.0 0.00 0.00 0.00 36 1006.9
20260906204505 88 212 0.0 2.0 0.00 0.00 0.00 35 1007.0
20260906203003 89 103 2.0 6.0 0.00 0.00 0.00 33 1007.1
20260906201502 89 280 0.0 6.0 0.00 0.00 0.00 36 1007.2
20260906200059 89 134 0.0 3.0 0.00 0.00 0.00 36 1007.3
20260906194556 87 142 0.0 4.0 0.00 0.00 0.00 37 1007.4
20260906193053 87 51 0.0 4.0 0.00 0.00 0.00 39 1007.7
20260906191550 86 98 0.0 4.0 0.00 0.00 0.00 39 1007.8
20260906190047 84 49 2.0 7.0 0.00 0.00 0.00 43 1008.0
20260906184549 82 97 0.0 3.0 0.00 0.00 0.00 45 1008.5
20260906183040 81 347 0.0 4.0 0.00 0.00 0.00 47 1008.8
20260906181537 80 22 0.0 4.0 0.00 0.00 0.00 50 1009.0
20260906180054 79 108 0.0 3.0 0.00 0.00 0.00 53 1009.1
20260906174534 78 197 0.0 2.0 0.00 0.00 0.00 56 1009.7
20260906173026 77 98 0.0 1.0 0.00 0.00 0.00 58 1010.0
20260906171522 76 11 0.0 4.0 0.00 0.00 0.00 62 1010.1
20260906170119 75 159 0.0 3.0 0.00 0.00 0.00 63 1010.4
20260906164518 74 37 0.0 1.0 0.00 0.00 0.00 65 1010.5
20260906163015 73 149 0.0 2.0 0.00 0.00 0.00 67 1010.7
20260906161517 72 322 1.0 4.0 0.00 0.00 0.00 67 1010.5
20260906160011 72 36 0.0 3.0 0.00 0.00 0.00 69 1010.6
20260906154511 71 64 0.0 3.0 0.00 0.00 0.00 70 1010.7
20260906153008 70 7 0.0 6.0 0.00 0.00 0.00 73 1010.8
20260906151509 68 124 0.0 4.0 0.00 0.00 0.00 75 1011.0
20260906150016 67 348 0.0 2.0 0.00 0.00 0.00 77 1011.0
20260906144512 67 73 0.0 2.0 0.00 0.00 0.00 77 1011.3
20260906143006 67 347 0.0 3.0 0.00 0.00 0.00 78 1011.1
20260906141505 65 329 0.0 4.0 0.00 0.00 0.00 81 1011.2
20260906140006 64 338 0.0 2.0 0.00 0.00 0.00 83 1011.3
20260906134507 63 22 0.0 1.0 0.00 0.00 0.00 84 1011.4
20260906133003 62 315 0.0 0.0 0.00 0.00 0.00 83 1011.4
20260906131600 62 315 0.0 0.0 0.00 0.00 0.00 83 1011.3
20260906130059 62 315 0.0 2.0 0.00 0.00 0.00 82 1011.4
20260906124553 61 12 0.0 1.0 0.00 0.00 0.00 81 1011.1
20260906123052 61 44 0.0 0.0 0.00 0.00 0.00 80 1011.1
20260906121555 61 44 0.0 0.0 0.00 0.00 0.00 80 1011.0
20260906120109 61 44 0.0 0.0 0.00 0.00 0.00 78 1010.8
20260906114547 61 44 0.0 0.0 0.00 0.00 0.00 77 1010.9
20260906113051 61 44 0.0 0.0 0.00 0.00 0.00 77 1010.9
20260906111601 61 44 0.0 0.0 0.00 0.00 0.00 75 1010.8
20260906110043 61 44 0.0 0.0 0.00 0.00 0.00 75 1010.8
20260906104539 62 44 0.0 0.0 0.00 0.00 0.00 73 1010.8
20260906103037 63 44 0.0 0.0 0.00 0.00 0.00 72 1010.8
20260906101537 64 44 0.0 0.0 0.00 0.00 0.00 71 1010.8
20260906100032 64 44 0.0 0.0 0.00 0.00 0.00 71 1010.7
20260906094537 64 46 0.0 0.0 0.00 0.00 0.00 68 1010.7
20260906093035 65 46 0.0 1.0 0.00 0.00 0.00 66 1010.5
20260906091522 66 41 0.0 1.0 0.00 0.00 0.00 65 1010.3
20260906090020 66 347 0.0 1.0 0.00 0.00 0.00 65 1009.9
20260906084521 67 32 0.0 3.0 0.00 0.00 0.00 63 1009.9
20260906083017 68 63 0.0 3.0 0.00 0.00 0.00 61 1010.0
20260906081514 69 357 0.0 5.0 0.00 0.00 0.00 59 1010.1
20260906080012 69 359 1.0 4.0 0.00 0.00 0.00 57 1010.0
20260906074607 69 339 1.0 3.0 0.00 0.00 0.00 54 1010.0
20260906073005 70 1 0.0 2.0 0.00 0.00 0.00 52 1010.1
20260906071504 70 311 0.0 3.0 0.00 0.00 0.00 50 1010.1
20260906070003 70 359 0.0 1.0 0.00 0.00 0.00 50 1010.1
20260906064502 70 46 0.0 0.0 0.00 0.00 0.00 49 1010.0
20260906063101 71 311 0.0 2.0 0.00 0.00 0.00 48 1010.0
20260906061559 71 319 0.0 1.0 0.00 0.00 0.00 49 1010.0
20260906060054 71 115 0.0 0.0 0.00 0.00 0.00 47 1010.3
20260906054553 72 120 0.0 1.0 0.00 0.00 0.00 47 1010.2
20260906053054 72 120 0.0 0.0 0.00 0.00 0.00 46 1010.2
20260906051600 73 120 0.0 0.0 0.00 0.00 0.00 45 1009.9
20260906050050 73 118 0.0 1.0 0.00 0.00 0.00 44 1009.7
20260906044550 73 124 0.0 1.0 0.00 0.00 0.00 44 1009.9
20260906043050 73 232 0.0 1.0 0.00 0.00 0.00 43 1009.3
20260906041554 74 41 0.0 1.0 0.00 0.00 0.00 41 1009.0
20260906040047 75 39 0.0 1.0 0.00 0.00 0.00 39 1008.6
20260906034549 77 59 0.0 2.0 0.00 0.00 0.00 37 1008.5
20260906033047 78 44 0.0 2.0 0.00 0.00 0.00 36 1008.6
20260906031547 78 335 0.0 3.0 0.00 0.00 0.00 35 1008.3
20260906030046 78 345 0.0 3.0 0.00 0.00 0.00 36 1008.2
20260906024559 78 39 0.0 1.0 0.00 0.00 0.00 36 1007.8
20260906023044 78 340 0.0 0.0 0.00 0.00 0.00 36 1007.8
20260906021543 79 340 0.0 0.0 0.00 0.00 0.00 34 1007.8
20260906020048 80 358 0.0 0.0 0.00 0.00 0.00 32 1007.6
20260906014644 81 300 0.0 2.0 0.00 0.00 0.00 31 1007.4
20260906013044 82 316 0.0 2.0 0.00 0.00 0.00 30 1007.1
20260906011543 83 322 1.0 6.0 0.00 0.00 0.00 29 1007.1
20260906010041 85 323 3.0 12.0 0.00 0.00 0.00 28 1007.1
20260906004543 86 298 5.0 11.0 0.00 0.00 0.00 26 1007.2
20260906003049 87 329 2.0 8.0 0.00 0.00 0.00 25 1007.3
20260906001538 86 322 1.0 7.0 0.00 0.00 0.00 26 1007.0
20260906000038 87 298 0.0 5.0 0.00 0.00 0.00 26 1007.1
20260905234538 89 326 0.0 5.0 0.00 0.00 0.00 23 1007.0
20260905233038 89 356 0.0 3.0 0.00 0.00 0.00 22 1006.9
20260905231539 90 20 0.0 5.0 0.00 0.00 0.00 22 1006.9
20260905230036 91 329 0.0 3.0 0.00 0.00 0.00 21 1006.7
20260905230001 92 329 0.0 3.0 0.00 0.00 0.00 21 1006.6
20260905224536 92 34 0.0 3.0 0.00 0.00 0.00 20 1006.6
20260905223035 92 332 0.0 5.0 0.00 0.00 0.00 20 1006.6
20260905221535 92 44 0.0 3.0 0.00 0.00 0.00 20 1006.6
20260905220036 92 308 0.0 1.0 0.00 0.00 0.00 20 1006.8